DLH424 EDDK-LOWI

Flight info

Callsign DLH424
Flight time 1h 0m
Altitude 34000
Route KUMIK2Q/13L KUMIK Y854 BOMBI DCT GIGET DCT ABUKA/N0390F310 DCT BATUB M738 MADEB MADEB1B
Aircraft A320/M-SDE3FGHIRWY/LB1

Departure

Time 2026-04-22 18:11
Airport Cologne Bonn Airport (EDDK)

Arrival

Time 2026-04-22 19:11
Airport Innsbruck Airport (LOWI)
Time Latitude Longitude Altitude Speed Heading
2026-04-22 17:39 50.88105 7.12093 230 ft 0 kts 216°
2026-04-22 18:01 50.88120 7.12109 231 ft 4 kts 206°
2026-04-22 18:02 50.88145 7.12121 232 ft 4 kts 178°
2026-04-22 18:02 50.88169 7.12112 232 ft 4 kts 142°
2026-04-22 18:02 50.88180 7.12095 231 ft 0 kts 126°
2026-04-22 18:07 50.88180 7.12096 231 ft 1 kts 126°
2026-04-22 18:07 50.88162 7.12135 230 ft 6 kts 126°
2026-04-22 18:08 50.88137 7.12190 230 ft 9 kts 126°
2026-04-22 18:08 50.88099 7.12295 230 ft 12 kts 104°
2026-04-22 18:08 50.88061 7.12408 233 ft 11 kts 123°
2026-04-22 18:08 50.88022 7.12509 231 ft 10 kts 120°
2026-04-22 18:09 50.87989 7.12602 231 ft 9 kts 112°
2026-04-22 18:09 50.87987 7.12706 233 ft 10 kts 79°
2026-04-22 18:09 50.88002 7.12804 236 ft 8 kts 75°
2026-04-22 18:09 50.88008 7.12883 237 ft 6 kts 90°
2026-04-22 18:10 50.88002 7.12944 238 ft 7 kts 97°
2026-04-22 18:10 50.87995 7.12982 239 ft 2 kts 116°
2026-04-22 18:10 50.87986 7.12997 239 ft 0 kts 134°
2026-04-22 18:10 50.87975 7.13013 240 ft 12 kts 136°
2026-04-22 18:11 50.87710 7.13399 246 ft 93 kts 137°
2026-04-22 18:11 50.87070 7.14353 275 ft 155 kts 130°
2026-04-22 18:11 50.86291 7.15541 1004 ft 156 kts 134°
2026-04-22 18:11 50.85469 7.16697 1790 ft 166 kts 135°
2026-04-22 18:12 50.84548 7.17983 2274 ft 189 kts 134°
2026-04-22 18:12 50.83505 7.19451 2924 ft 207 kts 135°
2026-04-22 18:12 50.82431 7.20983 3929 ft 209 kts 132°
2026-04-22 18:12 50.81639 7.22899 4899 ft 210 kts 109°
2026-04-22 18:13 50.81345 7.25185 5780 ft 220 kts 97°
2026-04-22 18:13 50.81126 7.27721 6355 ft 245 kts 97°
2026-04-22 18:13 50.80892 7.30507 7080 ft 262 kts 96°
2026-04-22 18:13 50.80645 7.33400 8031 ft 268 kts 97°
2026-04-22 18:14 50.80440 7.36350 9074 ft 271 kts 88°
2026-04-22 18:14 50.80558 7.39335 10136 ft 273 kts 84°
2026-04-22 18:14 50.80705 7.42392 10849 ft 289 kts 84°
2026-04-22 18:14 50.80866 7.45672 11424 ft 306 kts 84°
2026-04-22 18:15 50.81032 7.49063 12299 ft 312 kts 84°
2026-04-22 18:15 50.81199 7.52502 13242 ft 316 kts 83°
2026-04-22 18:15 50.81365 7.56000 14019 ft 322 kts 83°
2026-04-22 18:15 50.81530 7.59537 14257 ft 323 kts 83°
2026-04-22 18:16 50.81692 7.63077 14343 ft 323 kts 83°
2026-04-22 18:16 50.81858 7.66659 15027 ft 328 kts 83°
2026-04-22 18:16 50.82025 7.70259 15905 ft 329 kts 83°
2026-04-22 18:16 50.82194 7.73887 16714 ft 333 kts 83°
2026-04-22 18:17 50.82363 7.77555 17511 ft 336 kts 83°
2026-04-22 18:17 50.82532 7.81271 18299 ft 340 kts 83°
2026-04-22 18:17 50.82698 7.85020 19017 ft 344 kts 83°
2026-04-22 18:17 50.82861 7.88817 19702 ft 347 kts 83°
2026-04-22 18:18 50.83026 7.92644 20391 ft 350 kts 83°
2026-04-22 18:18 50.83194 7.96507 21067 ft 354 kts 83°
2026-04-22 18:18 50.83226 8.00418 21734 ft 360 kts 93°
2026-04-22 18:18 50.82679 8.04305 22383 ft 367 kts 107°
2026-04-22 18:19 50.81509 8.07934 23026 ft 375 kts 121°
2026-04-22 18:19 50.79770 8.11055 23648 ft 384 kts 136°
2026-04-22 18:19 50.77571 8.13515 24206 ft 390 kts 144°
2026-04-22 18:19 50.75275 8.15829 24729 ft 393 kts 144°
2026-04-22 18:20 50.72988 8.18124 25228 ft 396 kts 144°
2026-04-22 18:20 50.70649 8.20465 25725 ft 400 kts 144°
2026-04-22 18:20 50.68291 8.22824 26214 ft 403 kts 144°
2026-04-22 18:20 50.65912 8.25206 26703 ft 406 kts 144°
2026-04-22 18:21 50.63518 8.27604 27196 ft 410 kts 144°
2026-04-22 18:21 50.61105 8.30018 27672 ft 413 kts 144°
2026-04-22 18:21 50.58673 8.32451 28117 ft 416 kts 144°
2026-04-22 18:21 50.56219 8.34908 28556 ft 421 kts 144°
2026-04-22 18:22 50.53731 8.37392 28964 ft 425 kts 144°
2026-04-22 18:22 50.51234 8.39880 29504 ft 426 kts 144°
2026-04-22 18:22 50.48725 8.42370 30061 ft 427 kts 144°
2026-04-22 18:22 50.46206 8.44868 30507 ft 429 kts 144°
2026-04-22 18:23 50.43673 8.47378 30875 ft 432 kts 144°
2026-04-22 18:23 50.41117 8.49912 31225 ft 436 kts 144°
2026-04-22 18:23 50.38541 8.52463 31542 ft 439 kts 144°
2026-04-22 18:24 50.33217 8.57326 32222 ft 446 kts 148°
2026-04-22 18:24 50.30466 8.59599 32582 ft 449 kts 149°
2026-04-22 18:24 50.24887 8.64075 33379 ft 452 kts 149°
2026-04-22 18:25 50.22102 8.66335 33806 ft 452 kts 149°
2026-04-22 18:25 50.19318 8.68628 34248 ft 452 kts 149°
2026-04-22 18:25 50.16544 8.70940 34609 ft 452 kts 149°
2026-04-22 18:26 50.11000 8.75588 35248 ft 453 kts 149°
2026-04-22 18:26 50.08124 8.77600 35301 ft 450 kts 159°
2026-04-22 18:26 50.05102 8.78763 35305 ft 446 kts 170°
2026-04-22 18:26 50.02015 8.79076 35303 ft 445 kts 180°
2026-04-22 18:27 49.95862 8.77965 35303 ft 445 kts 187°
2026-04-22 18:27 49.89727 8.76700 35307 ft 445 kts 186°
2026-04-22 18:28 49.83587 8.75453 35307 ft 445 kts 187°
2026-04-22 18:28 49.77475 8.74195 35300 ft 446 kts 187°
2026-04-22 18:29 49.71327 8.72929 35293 ft 446 kts 187°
2026-04-22 18:29 49.65178 8.71663 35290 ft 445 kts 187°
2026-04-22 18:30 49.55962 8.69812 35287 ft 445 kts 187°
2026-04-22 18:31 49.49804 8.68712 35288 ft 445 kts 180°
2026-04-22 18:31 49.43708 8.69863 35284 ft 441 kts 161°
2026-04-22 18:32 49.38027 8.73282 35273 ft 439 kts 155°
2026-04-22 18:32 49.32373 8.76836 35272 ft 439 kts 156°
2026-04-22 18:33 49.26707 8.80369 35271 ft 440 kts 156°
2026-04-22 18:33 49.21034 8.83902 35269 ft 440 kts 156°
2026-04-22 18:34 49.15363 8.87447 35286 ft 440 kts 156°
2026-04-22 18:34 49.09693 8.90981 35275 ft 440 kts 156°
2026-04-22 18:35 49.04012 8.94498 35273 ft 440 kts 156°
2026-04-22 18:35 48.98330 8.98008 35260 ft 440 kts 156°
2026-04-22 18:36 48.92652 9.01515 35252 ft 441 kts 156°
2026-04-22 18:36 48.86962 9.05026 35257 ft 442 kts 156°
2026-04-22 18:37 48.81263 9.08532 35256 ft 442 kts 156°
2026-04-22 18:37 48.76514 9.11438 35258 ft 442 kts 156°
2026-04-22 18:38 48.69825 9.15524 34978 ft 444 kts 157°
2026-04-22 18:38 48.66963 9.17267 34646 ft 444 kts 156°
2026-04-22 18:38 48.64100 9.19009 34297 ft 443 kts 156°
2026-04-22 18:39 48.58425 9.22464 33479 ft 440 kts 156°
2026-04-22 18:39 48.55592 9.24191 33077 ft 438 kts 156°
2026-04-22 18:39 48.52771 9.25906 32679 ft 435 kts 156°
2026-04-22 18:39 48.49965 9.27604 32290 ft 433 kts 156°
2026-04-22 18:40 48.47175 9.29288 31899 ft 431 kts 156°
2026-04-22 18:40 48.44395 9.30965 31522 ft 429 kts 156°
2026-04-22 18:40 48.41634 9.32628 31265 ft 426 kts 156°
2026-04-22 18:40 48.38883 9.34287 31253 ft 427 kts 156°
2026-04-22 18:41 48.36121 9.35953 30826 ft 427 kts 156°
2026-04-22 18:41 48.33375 9.37602 30394 ft 423 kts 156°
2026-04-22 18:41 48.30654 9.39233 29879 ft 420 kts 156°
2026-04-22 18:41 48.27952 9.40852 29361 ft 416 kts 156°
2026-04-22 18:42 48.25276 9.42454 28838 ft 412 kts 157°
2026-04-22 18:42 48.22620 9.44045 28348 ft 409 kts 157°
2026-04-22 18:42 48.19986 9.45622 27876 ft 405 kts 157°
2026-04-22 18:42 48.17382 9.47177 27386 ft 401 kts 157°
2026-04-22 18:43 48.14802 9.48713 26921 ft 397 kts 157°
2026-04-22 18:43 48.12241 9.50237 26455 ft 394 kts 157°
2026-04-22 18:43 48.09708 9.51740 25997 ft 390 kts 157°
2026-04-22 18:43 48.07196 9.53234 25544 ft 387 kts 156°
2026-04-22 18:44 48.05547 9.54218 25247 ft 384 kts 156°
2026-04-22 18:44 48.03087 9.55733 24804 ft 380 kts 153°
2026-04-22 18:44 48.00792 9.57641 24376 ft 375 kts 144°
2026-04-22 18:44 47.98683 9.59891 23943 ft 371 kts 142°
2026-04-22 18:45 47.96597 9.62148 23456 ft 369 kts 142°
2026-04-22 18:45 47.94522 9.64387 22950 ft 366 kts 142°
2026-04-22 18:45 47.92467 9.66605 22462 ft 364 kts 142°
2026-04-22 18:45 47.90424 9.68810 21972 ft 362 kts 142°
2026-04-22 18:46 47.88391 9.71000 21496 ft 360 kts 142°
2026-04-22 18:46 47.86364 9.73179 21026 ft 358 kts 142°
2026-04-22 18:46 47.84353 9.75336 20580 ft 355 kts 141°
2026-04-22 18:46 47.82349 9.77490 20124 ft 353 kts 141°
2026-04-22 18:47 47.80365 9.79627 19666 ft 351 kts 141°
2026-04-22 18:47 47.78390 9.81753 19227 ft 350 kts 141°
2026-04-22 18:47 47.76423 9.83868 18791 ft 348 kts 141°
2026-04-22 18:47 47.74464 9.85968 18337 ft 347 kts 141°
2026-04-22 18:48 47.72503 9.88063 17846 ft 346 kts 141°
2026-04-22 18:48 47.70556 9.90137 17331 ft 344 kts 141°
2026-04-22 18:48 47.68611 9.92213 16873 ft 343 kts 141°
2026-04-22 18:48 47.66676 9.94278 16399 ft 342 kts 141°
2026-04-22 18:49 47.64750 9.96333 15944 ft 341 kts 141°
2026-04-22 18:49 47.62834 9.98377 15481 ft 339 kts 140°
2026-04-22 18:49 47.60937 10.00398 15243 ft 331 kts 140°
2026-04-22 18:49 47.59107 10.02340 15244 ft 319 kts 141°
2026-04-22 18:50 47.57290 10.04126 15251 ft 308 kts 149°
2026-04-22 18:50 47.55387 10.05440 15253 ft 295 kts 154°
2026-04-22 18:50 47.53536 10.06622 15254 ft 285 kts 154°
2026-04-22 18:50 47.51722 10.07766 15255 ft 282 kts 154°
2026-04-22 18:51 47.49917 10.08904 15256 ft 282 kts 154°
2026-04-22 18:51 47.48110 10.10040 15254 ft 282 kts 154°
2026-04-22 18:51 47.46307 10.11174 15255 ft 282 kts 154°
2026-04-22 18:51 47.44501 10.12311 15255 ft 282 kts 154°
2026-04-22 18:52 47.42694 10.13445 15247 ft 282 kts 154°
2026-04-22 18:52 47.40888 10.14576 15245 ft 282 kts 154°
2026-04-22 18:52 47.39138 10.15740 15247 ft 268 kts 145°
2026-04-22 18:52 47.37871 10.17580 15246 ft 250 kts 115°
2026-04-22 18:53 47.37417 10.19970 15254 ft 240 kts 89°
2026-04-22 18:53 47.37423 10.22428 15255 ft 239 kts 84°
2026-04-22 18:53 47.37495 10.24881 15255 ft 239 kts 84°
2026-04-22 18:53 47.37576 10.27331 15255 ft 239 kts 84°
2026-04-22 18:54 47.37659 10.29782 15256 ft 239 kts 84°
2026-04-22 18:54 47.37740 10.32239 15257 ft 240 kts 84°
2026-04-22 18:54 47.37826 10.34696 15258 ft 240 kts 84°
2026-04-22 18:54 47.37911 10.37150 15254 ft 240 kts 84°
2026-04-22 18:55 47.37995 10.39620 15263 ft 241 kts 84°
2026-04-22 18:55 47.38081 10.42077 15260 ft 239 kts 84°
2026-04-22 18:55 47.38166 10.44531 15267 ft 239 kts 83°
2026-04-22 18:55 47.38579 10.46833 15024 ft 231 kts 56°
2026-04-22 18:56 47.39732 10.48405 14801 ft 228 kts 25°
2026-04-22 18:56 47.41282 10.48779 14589 ft 231 kts 354°
2026-04-22 18:56 47.42757 10.47828 14364 ft 238 kts 322°
2026-04-22 18:56 47.43818 10.45859 14261 ft 246 kts 306°
2026-04-22 18:57 47.44651 10.43645 14258 ft 250 kts 291°
2026-04-22 18:57 47.44790 10.41115 14266 ft 256 kts 260°
2026-04-22 18:57 47.44045 10.38734 14266 ft 260 kts 229°
2026-04-22 18:57 47.42597 10.37186 14267 ft 259 kts 198°
2026-04-22 18:58 47.40844 10.36666 14256 ft 257 kts 178°
2026-04-22 18:58 47.39118 10.37085 14057 ft 249 kts 153°
2026-04-22 18:58 47.37572 10.38199 13738 ft 248 kts 152°
2026-04-22 18:58 47.36010 10.39277 13437 ft 246 kts 143°
2026-04-22 18:59 47.34798 10.41009 13210 ft 237 kts 118°
2026-04-22 18:59 47.33987 10.43077 13036 ft 236 kts 116°
2026-04-22 18:59 47.33165 10.45199 13030 ft 236 kts 116°
2026-04-22 18:59 47.32357 10.47277 13029 ft 237 kts 116°
2026-04-22 19:00 47.31537 10.49389 13025 ft 237 kts 116°
2026-04-22 19:00 47.30716 10.51506 13025 ft 238 kts 116°
2026-04-22 19:00 47.29896 10.53620 13029 ft 238 kts 116°
2026-04-22 19:00 47.29211 10.55824 13028 ft 235 kts 105°
2026-04-22 19:01 47.28813 10.58150 13023 ft 233 kts 95°
2026-04-22 19:01 47.28706 10.60519 13025 ft 230 kts 85°
2026-04-22 19:01 47.28801 10.62797 13019 ft 215 kts 83°
2026-04-22 19:01 47.28888 10.64957 13018 ft 209 kts 83°
2026-04-22 19:02 47.28973 10.67086 13021 ft 207 kts 84°
2026-04-22 19:02 47.29060 10.69219 12813 ft 213 kts 84°
2026-04-22 19:02 47.29148 10.71445 12286 ft 220 kts 84°
2026-04-22 19:02 47.29235 10.73697 11840 ft 219 kts 85°
2026-04-22 19:03 47.29323 10.75947 11403 ft 221 kts 85°
2026-04-22 19:03 47.29412 10.78202 10969 ft 221 kts 85°
2026-04-22 19:03 47.29504 10.80457 10540 ft 220 kts 85°
2026-04-22 19:03 47.29593 10.82674 10269 ft 214 kts 85°
2026-04-22 19:04 47.29677 10.84837 9947 ft 209 kts 85°
2026-04-22 19:04 47.29758 10.86950 9648 ft 204 kts 85°
2026-04-22 19:04 47.29836 10.89019 9359 ft 201 kts 85°
2026-04-22 19:04 47.29913 10.91056 9075 ft 198 kts 85°
2026-04-22 19:05 47.29987 10.93056 8830 ft 194 kts 85°
2026-04-22 19:05 47.30061 10.95045 8542 ft 194 kts 85°
2026-04-22 19:05 47.30136 10.97020 8251 ft 193 kts 85°
2026-04-22 19:05 47.30210 10.98990 7923 ft 192 kts 86°
2026-04-22 19:06 47.30284 11.00919 7611 ft 190 kts 85°
2026-04-22 19:06 47.30358 11.02854 7294 ft 189 kts 86°
2026-04-22 19:06 47.30430 11.04790 6973 ft 189 kts 86°
2026-04-22 19:07 47.30498 11.08583 6403 ft 186 kts 96°
2026-04-22 19:07 47.30073 11.10372 6178 ft 188 kts 118°
2026-04-22 19:07 47.29402 11.12016 6082 ft 188 kts 116°
2026-04-22 19:07 47.28831 11.13765 5723 ft 191 kts 112°
2026-04-22 19:08 47.28311 11.15562 5270 ft 191 kts 111°
2026-04-22 19:08 47.27809 11.17325 4875 ft 180 kts 110°
2026-04-22 19:08 47.27341 11.18980 4543 ft 170 kts 111°
2026-04-22 19:08 47.26907 11.20493 4300 ft 151 kts 109°
2026-04-22 19:09 47.26533 11.21826 4164 ft 134 kts 109°
2026-04-22 19:09 47.26187 11.23121 3887 ft 134 kts 110°
2026-04-22 19:09 47.25974 11.23973 3711 ft 133 kts 107°
2026-04-22 19:09 47.25637 11.25709 3311 ft 133 kts 102°
2026-04-22 19:10 47.25463 11.27025 3014 ft 132 kts 96°
2026-04-22 19:10 47.25423 11.28368 2745 ft 130 kts 89°
2026-04-22 19:10 47.25515 11.29670 2514 ft 126 kts 81°
2026-04-22 19:10 47.25657 11.30952 2270 ft 124 kts 78°
2026-04-22 19:11 47.25789 11.32181 2077 ft 120 kts 79°
2026-04-22 19:11 47.25907 11.33371 1923 ft 117 kts 80°
2026-04-22 19:11 47.26020 11.34360 1908 ft 62 kts 81°
2026-04-22 19:11 47.26071 11.34815 1897 ft 40 kts 81°
2026-04-22 19:12 47.26106 11.35160 1907 ft 24 kts 84°
2026-04-22 19:12 47.26066 11.35259 1901 ft 10 kts 169°
2026-04-22 19:12 47.26005 11.35272 1898 ft 8 kts 172°
2026-04-22 19:12 47.25951 11.35284 1896 ft 5 kts 172°
2026-04-22 19:13 47.25949 11.35284 1897 ft 0 kts 172°
2026-04-22 19:13 47.25948 11.35284 1897 ft 1 kts 172°
2026-04-22 19:13 47.25929 11.35288 1907 ft 3 kts 172°
2026-04-22 19:14 47.25910 11.35288 1907 ft 3 kts 188°
2026-04-22 19:14 47.25897 11.35245 1907 ft 5 kts 263°
2026-04-22 19:14 47.25894 11.35195 1898 ft 5 kts 263°
2026-04-22 19:14 47.25889 11.35151 1907 ft 4 kts 261°
2026-04-22 19:15 47.25886 11.35124 1907 ft 4 kts 261°
2026-04-22 19:15 47.25861 11.35093 1901 ft 5 kts 171°
2026-04-22 19:15 47.25836 11.35108 1896 ft 2 kts 160°
2026-04-22 19:15 47.25829 11.35108 1899 ft 0 kts 173°